Regional Weather Roundup
Issued by NWS Albany, NY

Home | Current Version | Previous Version | Text Only | Print | Product List | Glossary On
Versions: 1 2 3 4 5 6 7 8 9 10 11 12 13 14 15 16 17 18 19 20 21 22 23 24 25 26 27
000
ASUS41 KALY 200610
RWRALY

NEW YORK STATE HOURLY WEATHER ROUNDUP
NATIONAL WEATHER SERVICE ALBANY NY
200 AM EDT SUN AUG 20 2017

NOTE: "FAIR" INDICATES FEW OR NO CLOUDS BELOW 12,000 FEET WITH NO
SIGNIFICANT WEATHER AND/OR NO OBSTRUCTIONS TO VISIBILITY.

NYZ032-033-038>043-046>054-057>066-NYZ062>081-082-084-200700-
EAST


CITY           SKY/WX    TMP DP  RH WIND       PRES   REMARKS
ALBANY         CLOUDY    66  60  81 W7        29.90S
GLENS FALLS    CLOUDY    66  63  90 S5        29.87R
POUGHKEEPSIE   PTCLDY    69  61  75 SW6       29.89R
NEWBURGH       PTCLDY    68  63  83 W7        29.94R
MONTGOMERY     PTCLDY    65  61  87 SW5       29.92R
WHITE PLAINS   PTCLDY    72  62  71 W7        29.91R
ISLIP          PTCLDY    73  71  93 SW7       29.89R
NEW YORK CITY  PTCLDY    78  66  66 W6        29.89S
CENTRAL PARK   CLEAR     75  65  70 W8        29.93R
$$

NYZ005>009-017-018-044>046-055-056-200700-
CENTRAL


CITY           SKY/WX    TMP DP  RH WIND       PRES   REMARKS
FULTON         CLOUDY    67  62  84 W5        29.94R
SYRACUSE       MOCLDY    66  62  87 W9        29.93S
ROME           CLOUDY    65  63  93 W3        29.93R
ELMIRA         CLOUDY    61  61 100 W5        29.99S FOG
BINGHAMTON     PTCLDY    59  59 100 NW7       29.98S
MONTICELLO     CLEAR     60  60 100 W6        29.98R
$$

NYZ026>034-041>043-087-200700-
NORTH


CITY           SKY/WX    TMP DP  RH WIND       PRES   REMARKS
WATERTOWN      CLOUDY    67  62  84 W7        29.91R
FORT DRUM      NOT AVBL
OGDENSBURG     MOCLDY    66  61  85 W8        29.88R
MASSENA        MOCLDY    66  63  90 W9        29.86R
SARANAC LAKE   CLOUDY    62  61  96 SW3       29.88S
PLATTSBURGH    CLOUDY    67  59  75 CALM      29.83S
$$

NYZ001>004-010>016-019>021-085-200700-
WEST


CITY           SKY/WX    TMP DP  RH WIND       PRES   REMARKS
NIAGARA FALLS  CLEAR     62  55  77 W5        29.99R
BUFFALO        CLEAR     63  56  78 SW5       30.00R
DUNKIRK        CLEAR     60  57  89 S6        30.02R
JAMESTOWN      CLEAR     57  55  94 SW6       30.07R
WELLSVILLE     CLEAR     59  54  83 W9        30.07R
ROCHESTER      CLOUDY    65  60  84 W7        29.99R
PENN YAN       CLOUDY    66  57  72 W8        29.99R
$$

             KEY
       WCI = WIND CHILL INDEX
       VSB = VISIBILITY
       HX  = HEAT INDEX
$$




USA.gov is the U.S. government's official web portal to all federal, state and local government web resources and services.